• In Belarus
  • List of Countries
  • For 7 days
  • Water Temperature
  • Satellite Maps
  • Weather Map
  • Weather Widgets
  • user-avatar
    Login

    Hourly Weather Ganja

    Today, 18 July, Wednesday

    Time Temperature Precipitation Wind Pressure Humidity
    00:00 +24°C° 0 mm 2 mps 721 mmHg 54%
    01:00 +24°C° 0 mm 2 mps 721 mmHg 55%
    02:00 +23°C° 0 mm 2 mps 721 mmHg 56%
    03:00 +23°C° 0 mm 2 mps 720 mmHg 55%
    04:00 +24°C° 0 mm 2 mps 721 mmHg 55%
    05:00 +24°C° 0 mm 2 mps 721 mmHg 55%
    06:00 +24°C° 0 mm 2 mps 721 mmHg 55%
    07:00 +26°C° 0 mm 2 mps 721 mmHg 51%
    08:00 +27°C° 0 mm 2 mps 720 mmHg 47%
    09:00 +29°C° 0 mm 2 mps 720 mmHg 43%
    10:00 +30°C° 0 mm 2 mps 720 mmHg 41%
    11:00 +31°C° 0 mm 2 mps 719 mmHg 38%
    12:00 +32°C° 0 mm 2 mps 719 mmHg 36%
    13:00 +34°C° 0 mm 3 mps 719 mmHg 36%
    14:00 +35°C° 0 mm 3 mps 718 mmHg 35%
    15:00 +35°C° 0 mm 4 mps 718 mmHg 35%
    16:00 +35°C° 0 mm 4 mps 718 mmHg 36%
    17:00 +35°C° 0 mm 4 mps 718 mmHg 37%
    18:00 +34°C° 0 mm 4 mps 718 mmHg 38%
    19:00 +33°C° 0 mm 3 mps 718 mmHg 41%
    20:00 +30°C° 0 mm 3 mps 719 mmHg 44%
    21:00 +29°C° 0 mm 3 mps 719 mmHg 46%
    22:00 +28°C° 0 mm 3 mps 719 mmHg 49%
    23:00 +27°C° 0 mm 3 mps 719 mmHg 52%

    Tomorrow, 19 July, Thursday

    Time Temperature Precipitation Wind Pressure Humidity
    00:00 +27°C° 0 mm 3 mps 719 mmHg 55%
    01:00 +26°C° 0 mm 2 mps 719 mmHg 57%
    02:00 +26°C° 0 mm 2 mps 719 mmHg 59%
    03:00 +25°C° 0 mm 1 mps 719 mmHg 61%
    04:00 +26°C° 0 mm 1 mps 719 mmHg 61%
    05:00 +26°C° 0 mm 1 mps 719 mmHg 61%
    06:00 +26°C° 0 mm 1 mps 719 mmHg 60%
    07:00 +28°C° 0 mm 1 mps 719 mmHg 57%
    08:00 +29°C° 0 mm 2 mps 719 mmHg 54%
    09:00 +31°C° 0 mm 2 mps 718 mmHg 51%
    10:00 +32°C° 0 mm 2 mps 718 mmHg 48%
    11:00 +34°C° 0 mm 2 mps 718 mmHg 45%
    12:00 +35°C° 0 mm 2 mps 718 mmHg 41%
    13:00 +36°C° 0 mm 2 mps 717 mmHg 40%
    14:00 +36°C° 0 mm 2 mps 717 mmHg 39%
    15:00 +37°C° 0 mm 2 mps 717 mmHg 38%
    16:00 +37°C° 0.1 mm 2 mps 717 mmHg 39%
    17:00 +36°C° 0.1 mm 2 mps 717 mmHg 39%
    18:00 +36°C° 0.1 mm 2 mps 717 mmHg 40%
    19:00 +35°C° 0 mm 2 mps 717 mmHg 42%
    20:00 +32°C° 0 mm 2 mps 718 mmHg 44%
    21:00 +31°C° 0 mm 2 mps 718 mmHg 46%
    22:00 +30°C° 0 mm 2 mps 718 mmHg 46%
    23:00 +29°C° 0 mm 2 mps 718 mmHg 47%

    Day after tomorrow, 20 July, Friday

    Time Temperature Precipitation Wind Pressure Humidity
    00:00 +29°C° 0 mm 2 mps 718 mmHg 48%
    01:00 +28°C° 0 mm 2 mps 718 mmHg 49%
    02:00 +28°C° 0 mm 2 mps 718 mmHg 50%
    03:00 +27°C° 0 mm 2 mps 718 mmHg 51%
    04:00 +28°C° 0 mm 2 mps 718 mmHg 51%
    05:00 +28°C° 0 mm 2 mps 718 mmHg 51%
    06:00 +28°C° 0 mm 2 mps 718 mmHg 51%
    07:00 +30°C° 0 mm 2 mps 718 mmHg 45%
    08:00 +31°C° 0 mm 2 mps 718 mmHg 40%
    09:00 +34°C° 0 mm 2 mps 718 mmHg 35%
    10:00 +35°C° 0 mm 2 mps 718 mmHg 33%
    11:00 +36°C° 0 mm 3 mps 718 mmHg 30%
    12:00 +37°C° 0 mm 3 mps 718 mmHg 28%
    13:00 +38°C° 0 mm 3 mps 717 mmHg 27%
    14:00 +38°C° 0 mm 3 mps 717 mmHg 27%
    15:00 +39°C° 0 mm 3 mps 716 mmHg 27%
    16:00 +39°C° 0 mm 3 mps 716 mmHg 29%
    17:00 +38°C° 0 mm 3 mps 716 mmHg 31%
    18:00 +38°C° 0 mm 2 mps 716 mmHg 34%
    19:00 +36°C° 0.1 mm 3 mps 717 mmHg 37%
    20:00 +34°C° 0.1 mm 3 mps 717 mmHg 40%
    21:00 +31°C° 0.1 mm 3 mps 718 mmHg 44%
    22:00 +30°C° 0.1 mm 2 mps 718 mmHg 47%
    23:00 +29°C° 0.1 mm 2 mps 718 mmHg 50%

    21 July, Saturday

    Time Temperature Precipitation Wind Pressure Humidity
    00:00 +29°C° 0.1 mm 2 mps 718 mmHg 54%
    01:00 +28°C° 0 mm 2 mps 718 mmHg 55%
    02:00 +28°C° 0 mm 2 mps 718 mmHg 56%
    03:00 +27°C° 0 mm 1 mps 718 mmHg 57%
    04:00 +27°C° 0 mm 2 mps 718 mmHg 56%
    05:00 +28°C° 0 mm 2 mps 719 mmHg 55%
    06:00 +28°C° 0 mm 3 mps 719 mmHg 54%
    07:00 +29°C° 0 mm 3 mps 719 mmHg 50%
    08:00 +31°C° 0 mm 3 mps 719 mmHg 47%
    09:00 +33°C° 0 mm 3 mps 719 mmHg 43%
    10:00 +34°C° 0 mm 3 mps 718 mmHg 42%
    11:00 +35°C° 0 mm 3 mps 718 mmHg 41%
    12:00 +36°C° 0 mm 2 mps 718 mmHg 40%
    13:00 +36°C° 0.1 mm 2 mps 718 mmHg 39%
    14:00 +37°C° 0.1 mm 2 mps 718 mmHg 38%
    15:00 +37°C° 0.1 mm 2 mps 717 mmHg 37%
    16:00 +37°C° 0.2 mm 2 mps 717 mmHg 38%
    17:00 +37°C° 0.2 mm 2 mps 718 mmHg 39%
    18:00 +37°C° 0.2 mm 2 mps 718 mmHg 40%
    19:00 +35°C° 0.4 mm 2 mps 718 mmHg 44%
    20:00 +32°C° 0.4 mm 2 mps 719 mmHg 48%
    21:00 +30°C° 0.4 mm 2 mps 719 mmHg 51%
    22:00 +30°C° 0.1 mm 2 mps 720 mmHg 53%
    23:00 +29°C° 0.1 mm 2 mps 720 mmHg 55%

    22 July, Sunday

    Time Temperature Precipitation Wind Pressure Humidity
    00:00 +29°C° 0.1 mm 2 mps 720 mmHg 57%
    01:00 +28°C° 0 mm 2 mps 720 mmHg 59%
    02:00 +28°C° 0 mm 2 mps 720 mmHg 60%
    03:00 +27°C° 0 mm 2 mps 720 mmHg 61%
    04:00 +27°C° 0 mm 2 mps 720 mmHg 61%
    05:00 +27°C° 0 mm 2 mps 720 mmHg 60%
    06:00 +27°C° 0 mm 3 mps 720 mmHg 59%
    07:00 +29°C° 0 mm 3 mps 720 mmHg 54%
    08:00 +30°C° 0 mm 3 mps 720 mmHg 49%
    09:00 +33°C° 0 mm 3 mps 720 mmHg 44%
    10:00 +34°C° 0 mm 3 mps 719 mmHg 43%
    11:00 +35°C° 0 mm 3 mps 719 mmHg 41%
    12:00 +36°C° 0 mm 2 mps 719 mmHg 39%
    13:00 +36°C° 0.1 mm 3 mps 718 mmHg 38%
    14:00 +37°C° 0.1 mm 3 mps 718 mmHg 36%
    15:00 +38°C° 0.1 mm 4 mps 718 mmHg 34%
    16:00 +38°C° 0.1 mm 4 mps 718 mmHg 35%
    17:00 +38°C° 0.1 mm 4 mps 718 mmHg 35%
    18:00 +37°C° 0.1 mm 4 mps 718 mmHg 35%
    19:00 +35°C° 0.1 mm 5 mps 718 mmHg 39%
    20:00 +34°C° 0.1 mm 5 mps 719 mmHg 42%
    21:00 +32°C° 0.1 mm 5 mps 719 mmHg 46%
    22:00 +30°C° 0.1 mm 4 mps 719 mmHg 48%
    23:00 +29°C° 0.1 mm 3 mps 719 mmHg 50%

    23 July, Monday

    Time Temperature Precipitation Wind Pressure Humidity
    00:00 +28°C° 0.1 mm 3 mps 719 mmHg 52%
    01:00 +28°C° 0 mm 2 mps 719 mmHg 54%
    02:00 +27°C° 0 mm 2 mps 719 mmHg 55%
    03:00 +27°C° 0 mm 2 mps 719 mmHg 56%
    04:00 +27°C° 0 mm 2 mps 719 mmHg 55%
    05:00 +27°C° 0 mm 2 mps 720 mmHg 55%
    06:00 +27°C° 0 mm 2 mps 720 mmHg 54%
    07:00 +29°C° 0 mm 2 mps 719 mmHg 50%
    08:00 +30°C° 0 mm 2 mps 719 mmHg 45%
    09:00 +31°C° 0 mm 3 mps 719 mmHg 41%
    10:00 +34°C° 0 mm 3 mps 719 mmHg 39%
    11:00 +35°C° 0 mm 2 mps 719 mmHg 37%
    12:00 +36°C° 0 mm 2 mps 718 mmHg 35%
    13:00 +36°C° 0 mm 3 mps 718 mmHg 34%
    14:00 +37°C° 0 mm 3 mps 718 mmHg 33%
    15:00 +38°C° 0 mm 3 mps 717 mmHg 32%
    16:00 +37°C° 0 mm 3 mps 717 mmHg 33%
    17:00 +37°C° 0 mm 3 mps 718 mmHg 33%
    18:00 +37°C° 0 mm 2 mps 718 mmHg 34%
    19:00 +35°C° 0 mm 3 mps 718 mmHg 36%
    20:00 +34°C° 0 mm 3 mps 719 mmHg 39%
    21:00 +31°C° 0 mm 3 mps 719 mmHg 41%
    22:00 +30°C° 0 mm 3 mps 720 mmHg 42%
    23:00 +29°C° 0 mm 3 mps 720 mmHg 44%
    Show more